sat.trackr.live / text

‹ back to catalog

STARLINK-33957

NORAD 63897 · 2025-095H

PAYLOAD ACTIVE UNKNOWN

§ Identity

Operator
Country
US
Launch date
2025-05-10
Launch site
AFETR
Launch vehicle
Mass (kg)
RCS (m²)

Purposes: comms

External: N2YO · Heavens-Above · Gunter

§ Orbital elements

Epoch: 2026-05-25T04:29:39.981120Z

Period
94.27 min
Inclination
43.0016°
Eccentricity
0.0000577
Mean motion
15.27591228 rev/d
Perigee alt
482.6 km
Apogee alt
483.4 km
Semi-major
6,861.2 km
B*
5.9908e-4
RAAN
104.5037°
Arg perigee
141.3363°
Mean anomaly
218.7530°
Rev number
5,947

§ Raw data

STARLINK-339571 63897U 25095H   26145.18726830  .00016265  00000+0  59908-3 0  99902 63897  43.0016 104.5037 0000577 141.3363 218.7530 15.27591228 59472

JSON: /api/v1/satellites/63897 · /tle

For live sub-satellite position, see the globe view (requires WebGL).

§ Visibility from observer

Set your observer location to see the next 7 days of passes ≥ 10°. The values pass through the URL so the page stays shareable.

No JS? Fill the form by hand. The geolocation button needs JavaScript.